Flag for Norway Weather past 2 weeks in Sandnessjøen, Norway

Now
61 °F

Scattered clouds.


Feels Like: 61 °F
Forecast: 59 / 66 °F
Wind: 8 mph from Northeast

Location: Sandnessjoen / Stokka

Current Time: Jul 25, 2014 at 1:05:27 AM

Latest Report: Jul 24, 2014 at 10:50 PM


Visibility: N/A

Pressure: 30.21 "Hg

Humidity: 88%

Dew point: 57 °F

Location of SandnessjøenLocation

Historic Weather in Sandnessjøen — Graph

°F

Sandnessjøen temperature yesterday

Maximum temperature yesterday: 68 °F (at 4:20 PM)
Minimum temperature yesterday: 61 °F (at 4:50 AM)
Average temperature yesterday: 63 °F

Past Weeks' High & Low Weather Summary

 TemperatureHumidityPressure
High84 °F (Jul 10, 11:20 AM)100% (Jul 11, 4:50 AM)30.33 "Hg (Jul 11, 4:50 AM)
Low55 °F (Jul 16, 3:50 PM)42% (Jul 10, 3:50 PM)29.68 "Hg (Jul 14, 7:20 PM)
Average68 °F74%30.06 "Hg
* Reported Jul 9 10:20 PM — Jul 24 10:50 PM, Sandnessjøen, Weather by CustomWeather, © 2014

Note: Actual official high and low records may vary slightly from our data, if they occured in-between our weather recording intervals... More about our weather records

Advertising

Sandnessjøen weather history for previous 24 hours

 ConditionsComfort  
Time TempWeatherWind HumidityBarometerVisibility
10:50 PM
Jul 24
61 °FScattered clouds.8 mph88%30.21 "HgN/A
10:20 PM61 °FPassing clouds.9 mph88%30.21 "HgN/A
9:50 PM63 °FPassing clouds.10 mph88%30.21 "HgN/A
9:20 PM63 °FPassing clouds.12 mph88%30.21 "HgN/A
8:50 PM63 °FPassing clouds.14 mph88%30.21 "HgN/A
8:20 PM64 °FPassing clouds.12 mph83%30.21 "HgN/A
7:50 PM64 °FPassing clouds.10 mph83%30.24 "HgN/A
6:50 PM66 °FPassing clouds.12 mph78%30.24 "HgN/A
6:20 PM66 °FPassing clouds.13 mph78%30.24 "HgN/A
5:50 PM66 °FPassing clouds.12 mph78%30.24 "HgN/A
5:20 PM66 °FPassing clouds.10 mph78%30.27 "HgN/A
4:50 PM66 °FPassing clouds.12 mph78%30.27 "HgN/A
4:20 PM68 °FPassing clouds.12 mph73%30.27 "HgN/A
3:50 PM66 °FScattered clouds.9 mph78%30.27 "HgN/A
2:50 PM64 °FPartly sunny.8 mph83%30.30 "HgN/A
2:20 PM64 °FBroken clouds.9 mph83%30.30 "HgN/A
1:50 PM64 °FBroken clouds.8 mph83%30.30 "HgN/A
1:20 PM64 °FBroken clouds.8 mph83%30.30 "HgN/A
12:50 PM64 °FBroken clouds.8 mph83%30.30 "HgN/A
11:50 AM63 °FPartly sunny.5 mph83%30.30 "HgN/A
11:20 AM63 °FPartly sunny.3 mph83%30.33 "HgN/A
10:50 AM63 °FPartly sunny.5 mph83%30.33 "HgN/A
10:20 AM63 °FPartly sunny.3 mph83%30.33 "HgN/A
9:20 AM63 °FPartly sunny.3 mph83%30.33 "HgN/A
8:50 AM61 °FBroken clouds.2 mph88%30.33 "HgN/A
8:20 AM61 °FBroken clouds.3 mph88%30.33 "HgN/A
7:50 AM61 °FBroken clouds.2 mph88%30.33 "HgN/A
7:20 AM61 °FBroken clouds.2 mph88%30.33 "HgN/A
6:50 AM61 °FBroken clouds.3 mph88%30.33 "HgN/A
6:20 AM61 °FBroken clouds.2 mph88%30.33 "HgN/A
5:50 AM61 °FPartly sunny.2 mph88%30.33 "HgN/A
5:20 AM61 °FPartly sunny.3 mph94%30.33 "HgN/A
4:50 AM61 °FPartly sunny.5 mph88%30.33 "HgN/A
Weather by CustomWeather, © 2014

See weather overviewHow to use our weather pages